RH
5 9 14 18 23 26 29 28 22 27 28 32 32 25 19 14 15 9 9 15 23 33 41 46 43 44 50 59 66 73 75 68 74 76 77 89 86 85 85 70 59 52 44 50 74 88 89 90 82 82 88 87 86 85 82 78 71 64 61 59 55 53 52 49 49 56 58 48 40 41 44 42 38 38 44 52 58 73 87 90 91 91 92 92 92 92 92 90 87 87 88 90 91 88 83 73 73
8 18 24 29 31 28 27 26 27 29 30 32 27 23 19 14 14 9 12 19 25 33 39 45 47 49 52 59 63 72 88 85 81 84 87 90 89 88 81 66 57 49 44 51 69 83 92 92 83 84 88 88 88 88 87 79 72 65 62 60 56 56 53 50 50 58 63 55 46 44 46 43 42 42 48 60 71 81 88 90 90 90 90 91 92 89 86 86 86 87 89 90 91 92 85 72 73
11 25 28 29 30 26 24 24 32 34 31 33 26 21 16 12 12 9 14 17 20 31 41 45 48 50 49 57 61 71 89 87 85 88 88 87 90 92 78 63 55 48 44 45 58 79 93 92 86 89 91 91 90 89 88 83 76 67 63 61 58 58 55 52 52 59 65 61 52 47 48 47 47 47 52 66 77 83 88 91 90 89 88 89 88 85 82 82 87 90 89 90 91 93 85 73 74
10 20 24 25 25 23 24 25 38 39 31 33 26 19 12 11 15 12 15 19 16 24 42 50 54 52 49 59 60 69 81 81 83 85 85 84 87 89 77 64 55 46 43 41 53 79 95 94 90 92 95 94 91 88 87 86 84 74 64 61 60 59 57 54 54 60 67 67 60 54 54 53 54 56 61 70 77 80 86 90 91 90 86 85 84 81 79 81 89 90 89 87 85 82 77 74 73
7 13 19 23 25 22 22 25 34 34 28 30 25 17 10 9 15 17 19 18 15 26 43 51 57 54 53 58 58 69 80 81 80 79 83 84 84 82 75 64 53 48 47 45 55 82 94 91 93 95 97 96 90 87 87 87 88 82 69 62 62 60 58 57 58 63 69 71 69 68 70 69 67 68 70 73 73 73 79 84 85 85 85 83 80 79 78 83 88 89 90 88 82 73 67 70 71
11 14 16 19 24 20 23 28 30 30 24 23 21 15 10 7 10 16 16 14 22 38 45 50 56 57 63 59 56 66 70 76 79 79 83 85 84 79 74 68 64 69 71 66 70 87 91 87 94 97 95 95 89 85 87 86 87 84 73 67 65 62 60 60 62 67 73 75 75 79 82 77 71 69 67 65 61 59 64 72 78 81 82 80 78 79 79 84 87 87 91 87 80 73 65 64 66
17 18 20 20 22 20 27 34 30 29 22 18 17 14 10 7 9 11 12 10 21 42 50 54 54 60 70 60 62 69 62 69 78 81 83 84 84 78 76 73 73 83 91 91 89 91 88 88 94 95 92 91 88 84 85 86 85 83 77 73 69 65 63 63 67 73 78 80 79 79 75 67 62 59 58 57 55 54 52 55 67 77 80 79 79 79 78 83 86 87 88 81 76 74 66 59 59
18 21 25 23 24 20 25 28 23 25 20 16 14 12 12 9 8 9 11 8 16 41 53 53 52 65 73 64 77 82 72 76 79 83 83 83 82 76 79 79 80 85 87 91 94 91 84 88 95 94 90 87 84 82 85 85 84 83 79 75 70 67 65 68 74 79 82 82 77 68 63 59 59 59 60 61 61 59 52 47 54 67 77 78 79 81 80 82 84 83 80 77 76 74 64 56 53
18 22 23 22 27 22 23 22 17 18 15 13 10 11 14 10 9 8 9 8 21 45 51 50 51 67 76 76 89 85 82 86 82 85 83 82 79 81 90 89 91 92 84 82 87 89 83 88 95 93 90 88 83 82 85 85 84 82 78 74 71 70 70 74 78 80 80 78 72 64 62 63 64 65 67 68 65 62 57 48 46 59 74 76 76 81 83 82 84 82 75 75 75 70 63 60 54
22 20 20 22 26 25 27 25 19 17 13 11 9 8 10 7 8 7 8 7 24 47 50 52 57 68 78 87 95 86 87 89 85 92 87 81 78 81 87 82 88 90 83 85 88 87 83 89 95 93 89 87 84 83 84 84 82 79 76 73 72 73 75 79 79 78 77 74 72 70 69 69 70 71 71 71 68 64 59 50 47 61 73 73 72 77 83 83 84 81 75 75 72 67 66 66 60
30 20 17 21 23 24 27 25 20 19 13 11 9 7 7 6 7 7 9 7 24 54 55 56 68 74 82 92 94 84 88 91 92 99 91 81 76 76 79 79 86 81 79 92 93 87 84 85 89 92 89 86 84 82 82 81 78 75 73 72 73 76 78 79 78 77 76 74 75 76 77 77 78 78 77 74 71 67 61 52 50 63 69 67 69 72 77 79 79 76 73 73 69 68 68 66 64
32 23 16 21 25 23 23 22 17 17 13 11 9 7 7 6 8 6 7 4 15 44 48 53 67 72 87 99 93 86 91 98 98 99 94 88 85 84 82 83 84 77 78 91 93 89 85 82 85 89 87 85 82 80 79 78 75 72 71 71 73 77 77 77 77 76 75 74 75 77 80 81 83 83 79 76 73 70 65 56 52 61 66 65 69 70 70 72 73 72 72 72 69 70 69 64 63
29 25 18 21 27 21 20 18 15 19 15 12 9 6 7 5 8 5 9 14 21 39 44 51 60 70 93 99 90 89 95 100 99 99 97 95 96 91 86 87 79 73 75 81 89 92 87 84 87 87 85 86 83 80 78 77 74 72 71 70 73 76 73 72 71 71 70 69 70 71 75 78 81 83 81 79 75 72 68 61 56 60 64 66 70 73 71 69 70 71 72 70 68 70 68 64 61
24 22 19 22 25 18 17 16 13 16 13 10 8 7 8 6 7 6 18 33 37 43 47 54 61 74 94 97 92 94 97 100 99 98 96 95 98 90 89 88 74 69 70 75 86 89 90 89 87 85 83 84 83 80 78 76 73 70 68 67 71 74 71 67 64 64 64 64 65 67 70 74 78 81 84 84 80 75 72 67 62 61 62 66 70 74 73 70 70 72 74 72 71 71 69 65 60
18 17 17 19 20 16 15 15 11 12 11 9 7 8 8 6 8 7 22 42 44 41 44 50 53 64 81 90 91 91 96 100 99 98 93 92 93 88 88 80 68 68 66 74 84 78 86 89 80 79 81 82 79 74 75 74 69 65 60 63 71 72 69 64 62 63 63 63 66 68 70 74 79 82 84 87 84 79 77 73 69 67 64 66 71 75 75 74 74 74 75 73 72 71 68 63 57
14 13 14 17 18 18 17 15 12 13 12 10 8 9 8 7 9 6 11 27 32 32 39 41 38 51 69 76 79 86 96 98 97 97 93 93 94 92 89 78 72 72 64 77 88 74 78 80 70 73 76 75 71 68 73 73 68 60 56 65 72 71 66 62 63 65 65 67 70 72 74 78 81 84 85 87 86 81 80 79 77 74 71 72 75 78 78 78 77 75 75 74 72 70 67 62 58
12 13 16 19 19 18 19 17 14 14 12 9 7 8 9 7 9 8 8 21 34 38 50 53 47 56 67 71 78 90 96 95 94 96 97 99 100 98 95 91 90 86 75 84 89 74 70 66 60 65 66 65 65 68 74 73 68 59 58 70 75 70 66 64 67 69 69 70 72 72 74 77 80 85 87 87 87 83 82 82 83 80 78 78 79 79 79 78 77 73 72 71 71 69 65 62 59
14 19 22 21 21 17 16 14 12 11 10 8 7 8 9 8 7 7 9 25 47 57 64 71 72 74 76 80 87 93 94 93 93 95 99 99 100 100 99 99 97 92 88 91 87 72 61 55 55 56 57 59 60 68 75 75 68 58 59 72 76 69 65 67 69 71 71 72 74 73 72 75 78 82 85 87 88 86 83 84 86 83 78 79 80 80 79 77 74 70 68 65 61 62 62 61 58
14 21 22 20 20 17 12 11 10 9 8 8 8 8 8 9 7 7 8 18 47 72 75 79 89 90 88 89 91 92 91 91 92 93 96 97 99 100 100 99 94 91 95 99 91 74 57 50 52 51 53 56 57 68 77 75 67 58 60 69 73 67 63 66 68 71 74 77 78 74 73 76 77 80 83 85 87 87 86 85 86 84 79 78 78 77 76 75 71 66 62 55 49 50 54 56 57
13 16 18 19 18 15 11 10 10 7 8 8 8 8 8 7 6 8 9 11 37 70 81 85 96 98 95 91 89 89 88 88 90 91 92 94 97 97 99 99 96 96 99 100 93 84 70 56 52 51 51 53 57 68 74 72 65 59 60 64 67 65 63 66 68 72 79 82 79 75 76 79 79 82 85 86 88 89 90 86 81 79 78 78 78 75 75 73 69 63 54 51 49 47 48 50 55
12 14 16 16 14 13 11 10 9 8 8 8 8 8 8 7 6 7 9 10 20 45 67 80 91 96 95 91 88 86 86 88 89 89 91 94 96 97 97 97 98 99 99 99 96 94 82 62 54 53 51 52 56 64 69 66 60 58 58 62 65 66 68 69 70 73 79 82 81 77 78 82 84 88 90 87 87 91 93 88 80 77 78 80 79 75 75 73 69 62 53 59 61 51 51 54 58
11 12 13 12 12 11 10 9 9 8 7 8 8 7 7 7 7 6 8 8 8 27 56 72 81 88 90 89 89 87 87 89 89 89 92 94 97 98 99 98 100 99 98 99 100 97 86 66 55 54 51 52 55 58 63 61 57 56 56 60 63 67 72 71 70 73 76 80 80 79 80 84 87 91 93 89 88 93 93 88 82 81 81 82 80 77 76 72 70 67 62 67 71 62 62 67 67
11 11 11 10 11 11 10 9 8 7 7 8 7 8 7 7 8 7 12 15 18 38 59 70 77 82 85 87 88 89 90 90 90 91 92 94 98 100 100 100 100 98 97 98 100 98 92 76 60 56 54 55 58 58 60 60 56 54 54 57 60 65 71 70 70 73 75 77 79 80 81 85 87 88 91 93 92 94 92 87 86 85 82 81 83 85 83 78 78 79 74 73 75 72 72 74 72
11 11 10 9 10 10 10 9 8 7 7 7 7 7 6 8 7 7 29 49 53 61 67 72 79 81 85 89 90 89 90 91 91 91 90 93 97 99 100 99 99 99 97 97 99 94 85 77 66 60 62 62 64 64 62 59 55 54 55 56 58 62 67 69 71 75 77 77 79 82 81 83 89 88 86 91 93 92 91 88 87 86 82 81 82 86 89 89 90 87 82 79 77 73 72 72 71
9 10 8 8 8 8 9 8 8 8 7 7 7 7 6 10 5 9 48 73 70 71 73 79 83 85 89 90 91 91 92 93 93 93 90 93 96 98 100 99 99 98 96 94 94 90 82 81 78 71 70 71 71 71 68 65 61 57 58 59 61 63 66 72 76 78 79 80 83 83 82 83 89 91 84 86 91 90 90 88 87 86 84 83 80 83 87 90 95 91 87 85 80 77 74 71 70
10 8 7 8 8 8 8 7 8 7 7 7 6 8 6 10 5 14 61 78 71 76 80 85 87 88 92 91 92 92 93 94 94 96 93 94 96 98 99 97 98 97 94 93 91 93 93 95 96 88 83 80 79 80 77 74 69 63 63 67 68 69 72 77 81 82 83 85 87 86 86 86 87 89 88 89 91 88 89 88 88 88 86 84 82 82 82 85 91 90 88 86 84 83 78 71 69
10 8 7 8 7 8 7 7 9 7 8 7 6 7 6 10 3 17 65 77 71 82 85 87 90 92 93 92 94 93 93 94 95 98 95 95 96 98 99 95 94 93 91 89 90 96 98 99 100 95 88 84 84 87 86 81 76 72 73 78 80 78 76 79 84 87 89 90 90 90 91 90 87 86 91 96 96 91 89 85 84 88 86 84 86 84 82 83 87 88 88 87 85 83 76 71 71
11 10 8 9 8 9 8 8 9 8 8 7 7 7 6 10 2 21 64 72 72 83 88 91 93 95 94 92 94 94 94 94 94 95 94 96 96 96 96 94 92 91 89 84 87 91 91 96 100 96 90 87 88 88 89 87 82 81 82 85 85 83 78 77 82 87 93 93 93 95 95 94 89 85 89 96 99 96 90 84 84 86 83 83 86 86 85 84 87 89 89 87 86 82 75 72 71
11 11 10 10 10 9 9 9 8 8 8 7 8 8 11 9 5 34 65 66 72 83 88 93 94 95 94 93 94 94 95 93 93 94 93 94 94 93 91 91 88 88 91 91 90 86 87 97 98 96 93 88 88 85 85 85 83 84 86 87 85 82 79 78 81 86 92 95 96 98 96 95 92 87 88 91 94 94 90 88 87 86 86 86 87 87 87 85 85 88 89 89 86 80 76 75 73
11 10 10 10 12 11 7 8 7 8 8 7 8 10 15 9 12 48 66 62 73 85 90 94 94 95 94 93 94 95 94 91 94 93 91 92 91 90 87 87 85 82 85 91 92 88 91 99 95 95 94 87 85 83 83 81 81 84 85 85 83 79 78 78 83 87 89 93 95 97 96 95 93 90 89 89 90 90 88 90 89 88 89 89 88 89 88 86 86 87 90 92 87 81 81 78 75
11 11 15 14 14 14 9 8 8 7 8 7 7 12 15 8 21 54 60 58 72 82 89 92 93 95 94 94 94 94 92 89 93 92 88 88 88 87 85 86 84 79 76 78 86 92 96 100 95 92 88 82 81 80 80 78 77 81 80 79 78 76 76 75 79 85 87 90 91 93 95 95 95 95 93 90 92 91 89 91 91 89 90 89 89 90 90 89 89 88 90 93 89 84 83 81 76
14 14 23 23 16 14 11 9 10 7 7 8 7 13 14 7 25 53 52 52 65 75 84 89 92 94 93 94 93 92 93 91 92 91 87 85 84 82 81 81 79 75 69 65 75 92 100 100 94 87 82 77 76 75 75 73 73 77 76 72 71 71 71 72 75 81 86 89 90 92 94 95 95 96 94 91 91 90 88 89 90 88 89 90 88 89 92 92 91 88 90 93 90 84 83 82 77
25 18 21 26 19 15 14 8 10 8 6 9 7 13 16 10 25 45 46 47 58 69 80 87 90 91 92 92 92 92 93 95 94 93 89 85 83 79 77 76 74 73 67 61 72 92 100 96 87 79 76 74 74 76 75 72 71 73 72 67 65 65 68 71 73 76 82 85 87 88 88 90 91 91 92 91 88 88 88 89 90 89 90 91 90 90 91 93 93 93 95 95 90 87 87 84 79
38 35 27 29 24 16 18 13 10 8 7 9 7 12 15 16 32 43 43 46 54 66 77 85 87 88 90 90 91 92 92 94 94 94 91 88 89 87 81 75 75 77 68 59 71 93 97 86 77 71 68 68 68 70 71 70 68 69 69 66 64 65 69 73 73 73 77 79 82 81 81 82 83 83 86 86 84 83 83 85 89 90 91 91 92 92 92 94 97 98 99 93 88 91 93 88 83
35 42 34 34 30 20 22 18 11 8 8 11 9 12 14 18 35 44 43 46 52 63 74 81 84 85 87 89 90 90 90 90 90 90 89 88 88 86 82 76 74 73 64 54 63 89 95 80 71 67 64 66 65 63 66 69 68 68 71 73 72 69 72 77 75 74 77 78 79 79 78 79 78 77 78 77 75 77 76 78 85 88 89 91 93 95 96 97 98 100 98 88 86 94 96 92 88
25 34 31 28 27 22 21 16 12 9 9 14 13 14 16 18 25 31 38 48 53 63 75 79 81 83 84 86 87 88 88 85 84 87 87 87 85 82 82 81 77 71 63 55 60 82 88 75 69 67 66 66 65 64 64 65 66 66 69 73 74 72 74 78 78 78 79 78 76 75 73 72 74 73 71 66 65 69 69 72 78 80 83 87 90 92 95 98 99 100 98 91 90 95 98 96 93
29 29 28 23 22 20 17 16 16 17 16 16 21 23 20 20 22 23 32 49 62 69 77 80 78 79 80 81 83 84 83 79 81 85 84 84 85 86 87 87 87 82 72 61 65 79 78 69 66 64 63 62 62 63 61 60 60 59 60 63 67 69 72 73 73 73 71 68 68 68 65 65 68 66 63 61 61 65 65 68 74 76 80 84 87 90 93 97 99 100 98 96 97 98 99 99 96
29 27 25 21 23 19 17 23 23 26 28 21 26 29 22 27 28 27 39 53 66 72 74 77 76 74 74 75 78 79 76 75 80 83 81 80 83 87 88 87 87 84 80 73 73 77 70 66 64 59 59 59 58 56 54 56 55 53 53 56 61 64 64 64 64 64 62 61 59 56 56 58 62 60 58 58 61 65 66 69 73 77 82 83 85 89 92 95 99 99 97 97 100 99 97 97 98
27 27 27 24 25 21 25 38 31 29 32 23 29 30 27 43 38 31 46 54 60 68 68 70 70 70 70 70 73 73 73 77 80 81 82 81 82 86 86 86 83 78 80 78 73 71 66 65 60 55 56 55 52 48 46 50 51 50 50 54 59 59 59 59 58 57 57 57 55 52 52 55 58 59 57 57 61 67 68 69 72 75 80 81 81 84 86 90 94 97 96 95 98 97 96 97 99
32 25 23 27 26 20 26 39 37 37 36 24 29 33 32 47 42 32 42 47 54 63 64 66 65 65 65 65 67 68 70 76 78 80 82 81 81 84 85 85 83 79 79 76 71 68 65 63 58 55 58 57 54 48 44 46 48 50 52 55 58 57 56 55 53 54 54 56 57 56 57 57 58 59 56 57 61 63 61 62 64 66 74 80 80 80 82 85 89 92 93 92 93 95 98 100 100
49 41 23 26 27 22 23 32 42 50 51 40 37 42 47 48 38 33 37 41 51 58 61 66 63 61 61 62 64 64 66 70 75 78 79 81 83 83 84 84 81 78 77 73 70 68 64 62 61 62 62 59 56 50 47 47 48 53 57 58 59 57 57 54 54 58 58 59 60 59 58 57 58 57 55 56 57 55 54 56 58 62 72 78 75 71 73 78 84 89 90 90 92 93 96 99 100
48 51 37 33 32 34 34 41 51 48 45 46 38 43 65 63 41 35 37 40 51 54 59 66 63 62 63 63 65 64 66 70 72 74 76 81 83 81 82 82 80 79 76 72 69 67 66 63 64 66 64 57 53 50 50 49 48 52 57 58 57 56 58 58 58 62 64 62 61 60 59 57 57 56 55 54 51 49 48 48 51 57 64 65 62 61 62 65 74 83 88 89 92 92 90 95 98
32 44 51 45 39 43 42 42 46 42 40 44 40 40 58 60 40 36 36 37 45 41 46 59 60 63 64 62 64 64 69 75 71 71 77 83 83 81 83 82 82 81 76 71 68 67 66 64 62 65 64 59 55 54 54 51 48 50 54 56 55 52 57 58 57 62 65 63 63 62 60 58 57 58 57 53 45 42 43 43 43 47 52 54 53 55 58 61 67 74 79 82 86 87 85 88 93
30 48 51 37 31 35 44 42 33 37 41 46 54 45 42 48 40 35 32 26 31 28 29 45 54 60 64 62 61 61 68 74 70 71 82 85 81 81 82 81 81 80 76 74 72 68 65 58 55 62 66 62 58 56 54 51 48 49 53 54 51 49 55 57 58 63 65 63 64 61 58 55 55 56 56 52 44 40 42 43 39 37 41 48 50 51 54 58 62 64 67 73 79 81 79 81 85
34 53 43 27 25 27 40 42 34 43 39 43 69 51 32 56 55 40 36 25 27 31 28 37 50 56 60 61 59 59 66 70 66 70 81 84 80 79 79 78 79 79 77 76 74 70 64 53 51 63 68 59 54 52 50 50 49 51 54 50 48 51 56 58 60 64 64 62 60 57 56 54 52 52 51 49 44 40 42 43 39 37 37 42 48 53 55 55 55 58 62 67 70 68 65 64 65
35 43 35 29 34 35 36 33 37 54 46 50 78 53 27 60 70 50 40 27 28 38 35 39 50 54 57 62 62 61 66 67 63 66 76 80 79 78 77 76 76 78 79 78 75 72 68 56 53 65 66 53 49 49 48 50 52 52 50 45 48 52 56 58 61 63 62 60 58 57 57 52 47 48 48 46 44 43 45 45 46 48 46 44 47 53 56 53 50 53 57 59 59 56 54 54 54
30 34 35 36 43 49 52 51 41 42 51 61 71 52 33 53 69 59 43 30 32 38 40 47 53 55 59 63 64 63 64 64 63 66 72 76 76 77 77 75 75 77 79 80 79 77 72 60 55 63 61 53 51 48 47 50 50 47 43 43 49 52 55 58 58 59 60 58 57 56 54 48 45 45 45 45 44 46 50 49 50 54 55 51 52 57 59 58 56 54 56 57 53 50 50 52 53
26 30 36 38 48 59 68 74 52 39 62 73 60 48 42 48 57 53 44 40 39 38 42 52 55 57 59 58 59 60 63 65 67 72 75 76 77 78 77 76 76 76 76 78 80 81 77 66 60 62 59 54 52 49 48 48 45 40 40 46 51 52 55 54 52 56 59 57 55 51 49 49 49 47 43 41 42 47 50 51 52 55 58 54 51 53 53 53 52 49 53 60 59 53 52 54 54
26 30 40 42 45 53 65 70 56 53 68 68 57 46 43 55 58 46 40 41 39 38 41 46 50 54 55 55 57 59 64 69 72 76 76 77 81 80 77 77 76 74 74 76 80 83 80 72 66 63 60 56 53 52 50 45 39 40 47 52 51 52 53 50 51 58 58 54 51 48 49 50 51 47 42 39 39 43 47 50 52 53 55 53 49 49 45 40 36 32 39 53 63 63 57 55 55
20 24 39 47 46 49 63 68 58 59 61 56 56 47 44 59 61 47 41 41 40 40 41 45 50 54 56 57 60 62 65 68 72 75 78 81 84 79 74 75 75 73 72 75 80 83 81 76 71 66 62 56 53 53 49 42 39 43 52 53 50 52 50 46 53 59 55 51 47 45 47 46 44 40 36 34 35 39 42 45 48 52 54 51 50 53 50 41 32 25 27 34 45 57 62 59 56
22 26 29 39 52 55 58 61 57 58 57 52 50 47 52 59 57 51 43 41 46 45 46 54 57 58 62 63 66 69 70 70 71 74 78 82 81 74 69 70 73 74 73 76 81 81 80 79 73 69 70 68 63 56 45 41 43 46 50 52 50 51 47 44 53 58 53 51 48 45 43 39 36 35 32 34 39 42 43 40 38 43 48 48 50 53 52 48 37 25 23 24 26 36 51 60 60
28 28 23 24 43 57 54 56 71 71 56 49 46 49 61 58 51 54 50 48 54 53 54 61 64 66 70 72 74 74 73 73 73 73 77 80 77 74 73 69 69 74 77 80 82 80 79 80 76 74 79 80 75 65 49 40 43 47 51 52 51 50 46 42 51 56 51 51 51 48 45 38 34 37 36 38 45 48 46 41 32 30 35 42 50 53 52 52 46 33 30 33 33 31 35 50 59
28 20 23 26 30 47 52 51 66 65 51 54 50 45 55 54 47 50 51 54 56 55 58 62 68 73 75 77 77 74 74 75 76 77 78 80 79 78 81 78 76 79 83 85 84 79 77 78 77 75 78 76 69 64 54 41 39 47 53 53 50 48 45 41 44 50 50 51 52 49 48 44 40 41 40 39 44 48 45 41 34 28 28 35 47 53 51 51 50 45 40 40 45 44 39 44 55
27 19 25 32 26 43 61 54 49 45 49 62 54 44 50 54 58 55 48 51 54 56 61 64 71 76 77 79 76 73 74 74 77 79 78 79 79 78 79 81 81 81 83 84 83 80 77 76 75 73 73 71 64 62 59 48 40 45 52 53 50 47 45 42 41 45 48 51 53 51 50 50 47 46 46 42 42 45 46 43 39 34 29 31 40 48 50 49 49 52 50 47 51 56 51 43 47
21 19 20 26 29 43 53 48 47 46 49 53 50 52 51 50 63 61 48 52 58 61 67 72 77 78 77 79 76 76 77 75 77 79 79 80 78 76 75 76 79 80 81 83 81 78 76 74 74 72 70 70 70 68 68 64 56 53 54 53 50 47 46 44 42 45 48 48 50 51 50 51 51 50 50 49 46 47 49 48 45 43 38 35 37 41 48 51 49 51 53 51 53 57 53 45 45
19 22 22 27 41 49 41 41 53 52 49 54 55 56 56 60 66 55 47 56 60 64 73 76 78 78 78 78 78 79 77 75 77 78 80 82 77 74 72 72 75 74 74 78 78 77 77 74 73 75 74 76 77 71 69 72 66 60 58 53 49 48 46 44 44 46 48 47 47 49 49 50 51 51 51 51 50 50 51 50 50 50 49 46 44 41 45 51 51 50 52 51 52 53 50 49 52
23 29 29 30 39 44 39 43 54 53 54 62 59 54 66 83 76 54 52 60 59 64 71 72 73 75 76 78 78 79 78 77 79 79 79 81 78 73 70 72 75 72 68 72 75 77 77 71 71 80 86 86 82 73 69 67 59 55 59 55 49 48 47 47 46 45 47 48 47 46 46 48 49 50 51 51 51 50 50 51 51 51 52 53 52 48 46 48 50 51 52 51 52 53 51 52 56
18 23 29 38 45 45 42 45 57 66 66 66 62 60 73 86 76 60 60 60 57 60 65 68 72 73 75 80 77 77 79 78 77 77 78 79 78 73 69 71 75 77 75 73 72 74 74 70 71 84 95 92 84 77 73 69 60 58 62 57 50 49 49 50 49 47 46 45 47 46 44 46 47 49 50 49 50 51 51 51 51 52 53 53 55 55 52 49 49 49 50 51 53 54 52 53 57
Wind_Speed
3 1 1 1 2 4 3 2 1 2 2 0 4 3 5 5 3 3 8 5 4 1 2 6 6 6 6 8 11 8 4 1 2 4 2 2 18 27 23 27 34 32 30 24 20 19 19 22 23 24 25 25 25 24 24 23 23 23 23 22 21 21 20 20 19 19 18 18 19 20 20 21 20 19 18 18 18 18 18 17 16 16 15 15 16 16 15 14 14 14 12 12 11 11 11 12 13
1 3 2 1 2 2 1 2 3 2 4 2 5 4 5 4 3 4 7 4 6 3 3 9 10 11 11 11 10 8 7 5 4 4 3 13 21 20 25 31 35 34 31 26 22 21 21 22 23 24 25 25 24 23 23 22 22 23 23 22 22 21 20 20 19 18 17 17 18 19 19 19 18 17 17 17 17 18 17 16 16 15 15 15 15 15 14 13 13 12 12 11 11 11 10 10 12
2 3 2 2 2 1 0 2 2 1 4 2 5 4 4 5 7 8 9 6 9 9 5 7 8 5 5 7 5 5 3 3 8 7 6 16 16 17 29 33 34 34 31 28 24 22 22 22 22 24 24 25 24 23 22 21 21 22 23 22 21 21 20 19 18 17 17 16 17 18 18 17 16 15 16 17 17 17 17 16 15 15 14 14 14 14 13 12 11 11 11 10 10 10 8 8 11
2 0 1 2 2 2 3 2 2 3 3 4 4 5 4 5 7 6 9 6 7 9 4 4 5 3 4 10 5 4 5 3 7 8 6 11 16 23 31 32 33 32 30 28 24 23 22 21 22 23 24 24 24 23 22 21 20 20 22 22 21 21 19 19 17 17 16 16 16 16 17 16 16 16 16 16 16 16 16 15 15 14 14 14 13 12 12 12 11 10 9 9 8 6 6 8 12
1 1 1 2 3 1 2 1 1 4 4 4 3 6 6 5 7 4 6 4 1 7 7 4 3 1 4 7 2 3 5 5 7 9 10 13 24 30 30 31 32 30 29 27 25 23 21 20 21 23 23 23 24 24 22 21 21 20 21 22 21 20 19 18 17 16 16 16 16 16 16 16 16 16 15 14 14 13 13 13 13 14 14 14 13 12 12 11 10 9 9 8 7 6 7 9 12
1 2 1 1 1 1 2 1 1 3 6 5 3 6 7 10 10 6 6 2 5 6 8 5 6 5 4 3 2 2 5 8 8 9 15 19 27 30 30 30 29 25 23 23 23 22 20 20 21 22 23 23 24 24 22 21 21 21 21 22 21 20 19 17 16 16 16 16 15 15 15 15 15 15 14 13 12 11 11 11 11 12 13 13 13 12 11 11 10 8 8 8 7 7 7 8 12
4 4 1 1 1 0 3 2 4 4 6 6 4 6 8 11 10 7 7 1 5 4 6 6 8 9 3 1 3 5 4 12 9 12 22 27 29 29 29 29 29 26 21 17 19 21 20 21 22 22 22 23 23 24 23 21 22 22 22 22 21 21 19 17 16 16 15 16 15 15 14 14 14 13 13 12 12 11 11 10 10 11 12 13 13 12 10 10 9 7 7 7 7 8 7 8 11
4 2 1 3 1 2 2 2 4 4 6 5 4 8 10 10 9 6 7 1 3 2 5 6 7 8 2 3 4 8 11 17 17 21 27 30 30 28 26 27 29 29 24 17 16 20 21 21 22 22 22 23 24 24 23 22 22 22 22 22 21 20 19 17 17 16 16 16 15 15 14 14 14 13 13 13 12 12 12 11 11 12 13 13 12 11 10 8 7 5 4 6 7 7 7 9 11
2 1 1 3 1 1 0 3 4 5 6 7 6 10 12 10 9 8 9 2 4 5 6 7 4 7 3 8 6 5 12 22 28 28 27 28 27 24 21 22 24 25 26 20 19 20 21 23 22 22 23 23 24 24 23 23 23 23 23 22 21 20 18 17 17 17 17 16 15 15 15 14 14 13 13 12 12 12 12 12 12 13 13 12 10 10 8 7 5 3 3 6 7 8 9 10 11
1 1 1 1 2 1 3 3 4 4 6 7 8 13 14 12 8 9 8 3 6 6 3 1 5 9 8 8 5 3 9 24 32 28 27 29 26 24 23 22 21 23 26 21 21 22 22 24 23 23 23 24 24 24 23 23 23 23 23 22 20 18 18 18 18 18 17 16 15 15 14 13 13 13 12 12 12 12 12 12 12 13 13 11 10 10 9 7 4 3 4 7 9 9 10 10 10
2 2 1 2 2 1 3 4 5 5 7 7 9 14 14 12 7 6 4 5 6 7 4 4 7 10 9 5 2 4 10 23 29 27 26 29 27 27 26 26 23 23 25 21 22 23 22 23 23 23 23 24 24 24 24 23 23 23 22 21 19 18 18 19 18 17 16 16 15 14 13 13 12 12 12 12 12 12 12 12 13 13 13 10 10 11 10 7 5 5 6 8 10 10 9 8 9
1 2 3 3 1 3 4 4 6 7 8 7 9 13 7 4 4 4 4 5 4 6 4 3 7 7 8 3 1 6 14 18 23 27 27 29 29 28 28 27 25 24 24 20 19 21 22 22 21 22 23 24 23 24 24 23 22 21 20 19 19 19 19 19 18 17 17 16 15 14 13 12 12 11 11 12 12 12 12 12 13 13 12 11 10 10 9 8 7 7 7 8 9 9 8 7 8
1 2 4 1 3 3 4 4 5 5 7 6 7 10 5 4 5 5 7 6 5 4 2 5 9 6 6 2 2 6 10 13 21 27 28 29 29 29 29 29 28 25 23 19 17 19 22 22 21 21 22 23 23 24 24 23 21 20 19 18 19 19 19 18 17 17 16 15 14 13 12 12 11 11 10 11 11 11 11 12 12 12 11 10 10 10 9 8 8 8 8 8 9 7 6 7 7
3 2 4 1 2 1 4 4 4 3 5 7 5 7 6 3 3 5 9 8 5 4 4 7 11 9 5 3 2 3 6 13 23 28 29 30 29 30 30 31 31 28 24 20 17 17 21 23 23 21 21 22 22 23 23 21 20 19 18 18 18 18 18 17 16 16 15 14 13 12 12 11 11 10 10 10 10 10 10 11 11 10 10 9 9 9 8 8 8 8 8 8 8 6 6 6 5
5 1 4 1 3 2 4 4 3 3 5 6 6 6 4 4 1 5 10 8 2 4 7 6 5 6 6 8 6 7 12 20 26 30 31 31 32 32 32 33 33 31 28 23 20 19 20 23 24 22 21 21 21 22 22 21 19 19 18 18 18 17 17 16 15 14 14 13 12 11 11 10 10 9 9 9 9 9 10 10 9 9 9 8 8 8 7 7 7 7 7 7 7 6 5 5 4
4 1 2 1 3 3 4 5 2 2 6 5 6 6 6 6 5 3 4 6 3 1 4 3 2 3 9 7 8 16 22 26 30 33 34 32 33 32 32 34 34 33 31 27 23 23 22 23 23 22 21 21 21 22 22 20 19 18 18 17 17 17 17 15 14 13 12 12 11 11 10 10 9 9 9 8 8 8 9 9 8 8 8 7 7 7 6 6 6 6 6 5 5 4 3 3 2
2 2 1 2 4 4 4 4 2 2 7 8 9 8 3 3 5 3 4 7 7 2 5 4 4 4 7 8 20 30 29 31 34 35 33 31 30 29 28 30 31 31 31 28 25 25 24 23 22 22 21 21 21 22 21 20 19 19 18 17 17 17 16 15 13 12 12 11 10 10 10 9 9 9 8 8 7 7 8 8 8 7 7 7 6 6 6 6 6 5 5 4 3 2 1 1 2
2 2 2 4 5 5 4 3 1 1 7 10 9 6 1 1 3 4 5 7 5 7 7 6 10 11 11 18 31 34 31 33 33 33 29 26 26 24 24 25 27 28 28 27 26 27 26 23 23 22 21 21 22 22 21 20 19 19 19 18 18 17 15 15 13 12 12 11 11 10 10 9 9 9 8 8 7 7 7 7 7 7 6 6 6 5 5 6 6 5 5 4 3 2 2 2 2
3 3 2 5 5 5 5 4 1 2 7 9 8 5 4 2 2 2 3 3 3 8 6 7 13 13 13 19 27 27 28 29 27 30 27 24 25 24 24 23 25 26 23 23 26 27 27 26 24 23 22 21 22 22 22 21 20 20 19 18 17 16 15 14 14 13 12 11 11 10 10 10 10 10 9 8 7 7 7 7 7 7 6 6 6 5 5 6 5 5 4 3 2 2 3 3 3
2 3 3 6 5 6 7 5 4 5 7 6 7 4 5 5 3 1 2 3 3 6 4 6 10 11 12 13 18 22 22 21 23 26 25 24 25 26 26 24 25 25 22 23 25 25 26 28 26 24 23 21 22 22 22 21 21 20 19 17 16 15 14 13 13 12 11 11 11 11 11 10 10 9 9 8 8 8 8 8 8 8 7 7 7 6 6 6 5 5 3 2 2 2 2 3 4
2 4 5 6 5 6 8 7 6 6 6 5 7 5 4 7 3 1 2 1 1 3 6 10 13 15 15 12 13 16 16 16 18 21 21 22 23 24 26 27 26 25 24 25 24 24 25 26 25 24 22 22 21 21 21 21 21 20 18 16 15 14 14 13 12 12 11 11 11 11 11 10 10 9 9 9 8 7 8 8 9 9 8 7 8 8 7 7 6 5 4 3 3 2 3 4 5
2 4 6 8 6 6 9 8 7 5 5 6 7 4 3 5 4 3 2 2 4 4 5 12 17 18 18 15 12 11 11 11 12 15 18 19 20 22 24 27 26 25 27 26 24 25 26 26 25 23 22 21 21 21 21 20 20 19 18 16 15 15 14 14 13 13 12 12 11 11 11 11 10 9 9 9 7 7 8 9 10 10 9 8 8 8 8 7 6 5 5 5 4 4 4 4 4
3 6 6 9 9 8 8 7 5 4 3 5 3 2 1 4 5 4 3 4 5 4 9 13 15 16 18 16 12 11 10 9 9 11 14 18 20 22 26 28 28 29 30 27 25 27 28 27 26 24 23 22 21 21 21 20 20 19 18 17 16 16 14 14 14 14 13 13 12 12 12 11 11 10 9 9 7 7 8 9 10 10 10 11 10 9 8 7 6 5 4 5 4 3 3 3 3
5 6 7 9 10 10 11 8 6 5 5 7 3 1 1 3 2 3 2 2 2 10 13 15 14 14 15 13 11 11 10 9 10 11 14 17 19 22 26 28 30 31 31 29 26 28 29 29 28 26 24 23 22 22 21 21 20 19 18 18 18 16 14 13 13 13 13 13 12 11 11 11 11 10 10 9 8 8 8 9 10 10 11 12 12 10 9 8 6 6 5 4 4 4 4 4 4
6 8 9 9 8 9 12 9 6 7 6 7 5 3 4 6 4 1 2 3 10 13 13 15 15 14 13 12 12 11 10 9 11 13 13 14 18 21 22 25 28 28 30 30 28 29 30 29 28 28 26 25 23 22 22 21 20 20 19 18 17 16 14 13 13 13 13 13 12 12 11 10 10 9 9 10 10 10 9 9 8 9 9 11 12 12 11 10 9 8 8 7 7 6 6 6 6
6 8 9 9 9 9 9 8 7 5 4 5 5 5 6 6 4 2 4 7 12 13 14 14 14 14 11 10 10 10 10 10 10 13 14 16 18 20 20 22 24 25 28 30 28 26 25 22 21 25 26 24 23 22 21 21 21 20 19 18 16 16 14 13 14 13 13 13 12 12 11 11 9 9 9 10 11 10 9 8 8 7 8 10 12 12 12 11 11 10 10 10 10 10 9 7 6
5 6 7 9 10 8 6 6 6 5 3 4 4 6 7 4 2 1 2 8 13 14 13 12 13 13 10 9 8 9 11 11 13 16 16 15 17 18 20 21 21 22 26 29 26 23 22 18 18 22 24 23 23 22 21 22 22 21 19 17 16 15 14 14 14 14 14 13 12 10 10 10 9 9 10 10 10 9 9 9 8 7 8 9 10 11 12 12 12 11 10 9 10 11 10 7 6
7 6 6 8 5 4 4 3 5 3 3 4 1 5 5 2 1 6 8 8 13 15 13 12 12 11 10 10 8 8 8 12 17 17 15 14 15 17 17 18 20 21 23 26 25 23 22 20 20 24 24 24 24 22 21 22 21 20 18 17 16 15 14 14 13 13 13 12 11 10 10 10 9 9 10 10 9 9 9 9 8 8 8 9 10 11 12 12 12 10 9 8 9 9 8 7 6
8 5 3 8 6 5 7 4 5 3 3 2 3 5 6 3 2 9 13 9 12 15 13 11 11 10 10 10 8 6 7 12 15 15 15 16 17 19 18 16 21 21 15 16 20 23 22 19 21 24 24 24 23 21 20 20 20 19 18 16 15 13 12 11 11 10 10 11 11 10 10 11 10 11 11 10 10 9 9 8 7 7 9 10 11 10 10 11 11 9 8 8 8 8 7 6 5
6 4 2 5 7 6 7 4 5 5 3 3 4 3 7 7 2 11 14 12 13 13 12 11 10 10 9 9 8 7 7 10 11 14 18 19 20 21 21 18 20 22 16 11 14 20 20 18 20 23 23 22 21 20 20 19 19 18 16 15 12 10 9 9 9 9 9 10 10 9 9 9 10 9 9 10 10 8 7 6 6 7 9 9 10 10 9 9 9 9 9 7 7 8 6 5 4
4 4 3 3 2 7 7 3 3 6 2 6 5 3 9 8 4 13 13 14 15 12 11 10 10 9 8 8 9 7 6 8 11 16 19 21 22 22 23 22 20 22 22 18 15 15 17 20 22 23 23 21 20 20 19 19 18 16 14 12 10 9 8 8 8 9 9 9 8 8 8 8 8 7 7 8 8 7 6 5 6 7 8 9 9 8 8 9 8 8 9 8 8 9 7 5 5
3 2 4 4 1 6 9 4 5 7 3 7 8 4 7 7 7 16 13 13 15 13 11 10 10 10 9 8 8 8 6 8 12 16 19 22 25 25 25 26 23 23 24 24 21 15 17 23 24 25 23 21 20 20 20 18 16 15 13 11 10 9 8 7 8 8 9 8 6 6 5 5 6 6 7 7 7 7 6 5 6 6 7 8 8 7 7 8 7 7 8 8 9 10 9 7 6
4 1 3 4 3 4 7 8 8 12 5 5 9 5 4 6 7 15 13 14 15 13 11 10 10 9 9 8 7 8 6 7 10 13 19 23 25 27 27 28 26 25 26 27 22 15 20 25 25 25 24 21 21 20 20 18 16 15 14 12 10 9 7 7 8 8 7 7 7 6 5 4 5 5 6 7 6 6 6 6 7 7 8 8 7 7 8 8 7 6 8 10 12 13 10 8 6
4 2 1 4 5 3 5 9 7 10 9 6 9 7 3 3 6 13 13 14 14 13 12 10 9 8 8 7 7 8 8 9 8 12 19 21 21 23 26 28 26 26 28 29 22 15 21 27 25 24 24 22 21 20 20 18 17 16 14 13 11 10 9 9 9 9 8 8 8 8 7 7 6 6 5 5 4 3 3 4 5 7 7 7 6 7 8 8 7 6 7 11 12 11 9 7 6
4 3 1 3 4 4 6 9 6 7 9 8 8 7 6 2 6 11 11 14 14 12 12 11 10 9 8 8 7 7 8 9 9 14 20 21 23 24 26 29 29 29 29 29 25 18 22 27 25 23 23 22 21 21 21 20 18 16 15 14 13 11 12 12 11 10 10 9 8 8 8 7 7 7 7 6 5 4 5 4 3 3 4 5 5 6 7 7 7 7 8 10 11 10 9 7 6
7 4 4 2 4 5 6 7 4 7 8 5 7 6 4 3 2 4 2 5 9 10 10 9 8 9 8 8 8 8 9 8 10 16 20 21 24 27 28 30 31 34 35 35 31 25 25 29 26 24 25 24 23 23 23 22 20 18 17 16 14 13 14 14 12 12 12 11 9 9 8 7 6 7 7 6 6 7 7 7 6 5 5 4 5 6 7 8 8 8 7 7 8 9 8 7 6
5 0 3 0 3 5 7 6 5 3 7 1 3 6 2 0 1 4 3 2 6 10 9 8 8 8 8 9 9 9 9 8 11 17 19 19 19 23 27 27 27 31 35 37 34 29 29 31 29 28 28 27 26 26 26 25 23 22 20 19 18 17 17 17 16 15 14 13 11 10 8 7 8 8 6 6 7 7 7 7 7 8 7 6 5 5 6 8 8 7 6 5 5 6 5 5 5
1 2 2 3 2 6 7 4 6 4 7 1 0 6 3 3 2 4 9 8 8 10 11 10 10 9 8 9 9 9 8 7 10 13 16 19 19 22 27 27 28 29 30 33 33 31 31 31 30 29 27 27 27 26 26 25 23 22 21 21 22 22 20 19 18 16 14 11 10 9 7 7 9 8 6 6 7 8 8 7 7 8 8 7 7 6 6 7 8 7 6 6 5 5 3 3 5
3 2 2 3 2 4 7 6 8 6 5 1 2 4 2 7 3 5 12 11 8 10 13 13 12 10 8 9 10 9 8 8 10 11 13 20 23 24 26 26 28 30 29 31 33 32 30 29 28 28 27 26 25 24 24 24 22 20 19 21 21 20 18 16 15 14 12 11 9 9 8 8 10 9 7 6 8 10 10 8 8 8 9 9 10 10 9 8 7 5 5 5 5 5 4 3 4
1 1 1 2 2 1 3 6 7 6 2 1 1 4 3 5 3 3 9 10 9 9 9 11 13 13 13 13 12 12 12 11 11 10 11 17 22 23 24 25 27 30 30 31 32 31 29 28 28 27 27 26 24 23 23 22 21 20 20 20 19 17 16 14 13 13 12 12 11 9 8 8 9 9 9 8 11 13 11 9 8 8 9 10 11 13 12 10 8 5 4 3 4 6 5 4 3
3 2 3 4 1 1 4 5 5 5 5 1 4 6 4 3 5 2 3 3 7 8 7 8 9 9 10 11 11 12 13 13 13 12 11 13 18 21 24 26 28 30 31 32 32 31 29 28 28 28 28 26 25 24 23 22 22 23 23 21 18 17 16 14 14 14 14 13 12 11 11 10 10 10 10 10 12 12 12 11 9 8 10 10 11 12 12 11 10 7 6 4 4 6 5 4 4
4 3 6 6 4 3 2 4 4 5 6 3 5 4 6 5 4 4 4 1 7 7 8 10 8 5 6 9 9 9 9 10 11 12 12 12 15 20 24 26 28 29 31 33 33 32 30 29 30 28 27 26 26 24 23 22 23 24 24 23 21 19 17 15 15 16 15 14 13 12 12 11 9 10 10 11 11 11 11 11 11 11 11 11 10 10 10 10 10 9 8 6 5 4 3 4 5
2 4 7 7 6 5 4 5 4 2 1 4 3 5 4 6 5 6 2 5 8 5 6 8 6 6 7 8 8 8 8 8 8 9 10 11 15 19 21 25 28 29 31 33 33 32 30 29 29 29 25 23 24 23 22 23 24 25 24 23 21 20 19 16 16 17 15 13 12 11 10 8 7 8 8 9 11 11 11 10 10 11 11 10 9 7 8 8 9 9 8 7 7 5 4 5 6
3 6 6 4 1 4 5 6 3 2 2 4 4 4 2 4 5 6 1 4 6 7 8 7 6 7 9 9 10 11 11 10 9 9 9 11 16 20 22 25 28 30 32 33 33 32 30 28 29 28 23 21 24 24 24 25 26 26 25 23 22 21 20 19 18 17 15 13 11 9 8 7 6 7 8 9 10 10 10 10 9 9 10 9 8 8 8 8 8 9 8 8 8 8 6 6 7
6 7 5 4 2 5 5 6 3 1 2 4 6 2 1 4 6 5 3 2 3 6 7 9 11 10 10 11 10 10 10 10 10 11 11 13 17 21 23 25 26 30 33 33 32 32 29 28 29 27 22 23 26 27 27 26 26 27 26 24 23 22 21 20 20 18 15 13 12 10 9 8 8 9 10 11 12 12 11 11 11 12 13 11 10 10 9 9 9 9 9 9 9 10 9 9 9
6 3 2 1 2 2 4 6 3 3 5 2 6 2 0 4 6 5 4 4 3 5 4 8 13 11 9 9 7 8 8 8 10 11 11 14 17 21 23 25 26 28 31 31 31 31 29 28 30 26 23 26 28 27 28 28 27 27 27 26 25 24 24 23 21 19 17 15 14 13 11 10 10 11 11 12 14 13 12 11 12 13 14 14 13 12 10 10 9 10 10 10 10 11 10 10 10
2 3 4 5 6 4 3 3 3 4 2 5 6 1 2 1 5 4 2 3 2 2 2 2 9 8 7 7 7 9 9 8 8 7 7 10 15 19 22 24 24 24 26 27 28 30 29 29 30 25 23 26 27 27 27 27 27 26 26 27 26 26 27 26 23 21 19 18 17 16 13 12 12 12 11 12 13 13 12 10 11 12 12 12 12 10 10 9 9 9 10 10 10 10 10 10 11
3 4 4 3 4 5 5 5 4 2 3 6 5 1 6 2 4 4 5 7 4 3 4 5 7 7 6 7 7 7 8 7 6 6 6 8 10 13 16 20 21 21 22 23 24 26 26 26 27 25 24 25 26 27 27 25 25 25 26 27 27 28 29 27 26 25 23 21 19 17 16 15 13 12 12 13 13 12 12 11 10 10 10 10 10 9 8 8 8 8 9 10 10 10 10 11 12
5 4 5 4 2 4 3 3 2 1 4 5 4 2 3 2 5 5 7 8 7 2 7 10 9 8 7 7 8 6 6 7 6 6 6 6 7 9 13 16 19 20 21 21 20 19 19 20 22 25 25 26 26 26 26 26 25 25 26 27 28 28 28 27 27 27 25 22 20 20 19 18 16 14 13 14 14 13 12 11 10 9 9 8 8 8 8 7 7 9 9 9 9 10 9 10 11
3 4 3 4 2 2 1 3 1 1 4 4 4 1 0 3 3 5 7 7 5 4 5 11 10 10 9 7 8 7 7 7 7 6 5 5 6 9 12 15 18 20 20 19 17 17 17 17 20 24 27 29 30 28 26 26 25 24 25 28 28 28 26 26 27 27 26 22 21 22 21 19 18 16 15 15 15 14 12 11 11 10 9 8 7 7 7 7 7 8 9 9 8 8 8 9 9
2 4 5 4 4 4 3 3 2 3 3 3 4 1 2 2 3 4 6 9 7 7 5 9 10 9 9 8 9 9 7 6 6 7 6 5 5 8 11 14 16 17 17 16 16 17 17 17 19 23 23 21 23 26 28 28 24 20 23 28 28 27 25 25 27 26 25 23 22 22 20 19 18 16 16 16 15 14 12 11 11 11 11 9 7 6 5 5 5 6 8 8 9 8 8 9 8
2 1 5 1 4 5 2 3 5 4 0 2 2 1 3 3 2 4 6 10 8 7 7 9 10 8 8 8 8 8 6 6 6 7 6 5 6 6 7 12 16 14 15 16 16 17 17 17 18 21 21 16 13 18 26 30 25 19 23 28 28 26 25 25 26 25 23 23 21 20 18 17 16 15 16 16 16 14 12 11 10 11 11 10 8 6 5 4 3 4 6 7 8 8 7 9 8
1 2 1 3 4 7 4 1 2 4 3 2 1 1 4 2 2 5 7 8 7 5 5 7 8 8 8 7 7 7 6 6 6 6 6 6 8 11 8 6 11 12 16 17 17 17 18 18 18 18 21 23 21 20 23 28 27 20 22 28 28 26 24 24 24 23 22 23 21 18 17 16 15 15 14 15 15 14 11 10 9 9 10 11 10 8 6 4 1 2 4 5 6 6 7 7 7
3 0 3 2 2 4 4 1 2 3 2 3 1 2 2 1 1 4 6 6 5 4 5 7 9 9 8 6 6 7 7 7 6 6 6 7 9 13 14 11 9 12 17 20 18 17 17 17 17 18 22 27 27 24 21 23 27 23 21 25 28 26 24 22 22 21 21 23 22 20 19 17 17 15 14 14 14 13 11 9 8 8 9 10 12 10 7 4 3 2 2 2 3 4 3 4 6
4 3 3 3 2 1 1 2 1 1 1 3 3 1 1 2 3 3 4 4 6 5 3 5 9 9 9 6 6 7 7 6 5 6 5 6 10 14 17 17 14 13 15 18 18 16 15 15 15 17 23 27 25 21 16 14 18 18 17 22 25 25 24 21 20 20 21 22 23 22 21 20 18 17 16 16 15 14 13 11 10 8 8 9 10 11 9 6 5 4 4 3 3 3 2 2 4
4 2 2 3 3 3 1 1 3 3 2 2 2 2 1 3 4 1 1 1 6 7 5 5 6 7 7 7 7 7 7 6 5 5 5 6 10 15 18 20 19 16 14 15 15 15 14 14 15 16 20 22 20 19 16 12 13 12 12 19 23 23 24 21 19 21 23 22 22 23 22 21 20 19 18 17 16 15 14 12 11 10 9 9 9 10 10 9 8 7 7 6 5 5 5 4 3
4 4 3 1 2 2 1 1 1 3 4 2 1 1 4 5 2 3 3 3 4 6 7 6 4 5 5 6 6 6 6 6 5 6 6 6 10 15 18 20 21 20 17 15 14 14 13 12 14 15 16 17 18 18 16 14 16 14 13 18 21 20 22 21 20 23 24 22 22 23 21 20 21 21 20 19 17 16 14 13 12 11 10 11 10 10 10 10 10 10 9 9 8 8 7 6 5
2 2 2 2 3 3 3 0 2 1 4 4 4 1 5 5 1 2 5 5 5 6 8 7 4 6 6 6 6 6 5 5 5 6 6 6 10 14 16 18 20 21 19 17 15 14 14 13 13 13 13 14 15 15 15 15 18 18 15 18 22 21 20 20 22 25 25 22 22 23 22 19 18 19 20 21 19 17 16 14 13 13 12 12 11 11 11 12 12 12 12 12 11 11 10 9 9
Wind_Direction
280 189 121 159 315 334 336 91 80 316 93 273 262 234 256 232 233 282 292 289 101 338 34 76 70 92 100 102 111 98 48 89 157 138 186 175 145 156 163 159 155 154 157 159 156 155 156 152 147 142 140 142 141 141 142 142 143 144 143 141 139 137 134 130 128 126 127 128 130 130 128 127 123 119 116 115 114 112 112 111 110 108 106 105 103 102 103 101 101 101 97 99 102 99 100 100 101
198 135 85 32 330 6 253 102 97 315 68 320 269 201 256 300 284 251 260 268 105 165 117 83 78 84 103 118 118 87 36 14 87 104 97 122 130 146 158 158 155 156 157 158 156 154 156 154 149 144 142 142 140 137 138 141 142 143 143 141 139 137 135 132 130 129 130 131 133 133 132 131 127 122 118 118 117 116 116 114 113 111 108 107 106 104 103 103 105 105 101 102 103 105 102 99 104
157 135 65 18 8 78 56 46 102 129 94 241 264 234 266 302 267 227 232 225 142 154 121 82 75 64 97 98 61 64 86 46 89 98 108 125 126 142 153 155 155 157 158 157 157 154 156 154 148 144 142 140 137 135 134 136 138 141 142 140 140 139 137 135 132 133 134 135 135 135 136 135 132 126 122 121 122 121 119 117 114 110 106 108 109 106 107 107 110 107 101 102 103 106 101 100 111
172 185 1 46 53 35 56 71 145 130 147 222 261 270 246 259 271 229 230 239 164 150 113 74 66 354 58 82 53 64 113 116 105 116 118 135 141 146 148 151 154 156 156 156 155 153 154 152 148 143 140 138 135 134 134 133 133 136 140 140 140 140 139 136 135 136 138 140 136 134 135 135 133 129 128 127 126 126 124 122 120 119 118 119 115 109 111 113 116 110 102 104 102 93 93 104 116
179 310 282 78 77 20 93 122 147 134 200 211 221 270 258 276 307 281 251 290 46 122 120 119 101 331 52 77 89 94 119 120 114 118 111 132 144 146 146 148 151 152 153 155 153 151 150 150 146 142 139 136 135 133 133 133 131 132 137 140 141 141 140 138 138 140 142 142 137 134 133 134 134 132 132 129 127 128 129 130 130 132 133 130 120 111 112 123 129 115 104 103 92 74 84 103 118
49 46 149 109 112 203 111 183 238 216 234 205 196 265 281 302 305 286 271 352 44 100 120 121 121 129 90 61 64 91 164 135 115 122 122 133 142 143 143 143 143 141 144 148 149 146 145 148 145 142 139 136 135 133 133 133 132 132 136 139 142 143 142 142 142 144 144 142 139 137 136 136 134 131 130 126 124 125 129 134 137 138 138 133 125 122 126 138 142 125 109 99 88 78 80 97 119
20 37 86 66 328 21 108 198 224 243 250 210 210 255 265 285 286 293 288 48 58 35 75 106 127 117 97 121 79 10 112 132 123 129 133 136 140 139 140 142 137 133 134 137 142 141 144 147 144 141 137 134 133 132 133 133 134 134 137 140 143 144 146 146 145 145 144 143 142 141 138 135 130 126 124 121 120 119 123 128 135 137 133 133 133 136 141 145 146 134 108 89 86 80 79 97 120
14 19 101 91 8 10 111 240 238 219 251 239 231 255 253 261 273 297 279 228 98 51 83 138 129 101 18 71 87 4 62 109 116 120 128 131 134 134 137 137 132 134 138 138 140 140 145 147 143 140 136 133 133 132 133 134 135 136 139 142 144 146 148 148 147 146 144 143 142 141 137 132 128 125 122 119 117 116 118 122 127 130 131 137 140 139 144 150 153 144 102 86 89 86 94 104 122
35 98 30 92 92 339 283 273 264 232 257 276 278 270 265 258 263 264 256 280 109 131 140 182 121 104 118 70 80 8 58 97 106 107 114 118 121 118 113 119 124 131 137 143 147 144 146 146 142 138 135 133 133 133 133 134 135 137 140 143 146 148 150 149 147 145 144 143 141 139 135 132 129 125 122 119 118 117 117 119 124 129 134 136 132 131 139 150 155 148 100 100 99 102 109 104 116
38 151 129 97 97 325 301 266 256 265 270 278 276 270 269 258 243 240 236 123 120 132 130 145 63 105 116 79 77 12 71 103 103 98 105 115 123 122 118 129 137 134 135 142 148 148 148 144 139 136 133 133 134 135 135 135 136 139 141 145 148 149 149 148 146 145 145 144 141 139 136 133 131 127 124 122 120 117 116 119 124 130 135 128 120 124 127 130 136 118 107 113 112 115 112 98 103
13 306 128 86 65 238 262 259 260 281 286 293 281 270 266 252 219 207 191 108 118 133 135 77 79 107 97 77 65 39 89 105 104 102 112 123 131 134 136 144 145 134 133 140 146 147 144 139 136 135 133 133 135 136 137 136 138 140 142 146 148 150 149 148 148 148 147 146 144 140 138 134 131 129 127 126 123 120 118 121 127 131 132 124 118 119 116 112 111 104 109 116 121 119 106 93 92
54 307 81 103 179 211 222 249 271 286 291 296 285 278 267 223 158 144 100 71 104 137 181 133 128 118 82 72 89 79 91 100 106 110 118 123 128 134 139 143 139 131 131 137 145 142 136 135 135 133 133 133 134 136 137 136 138 140 143 147 149 151 151 151 151 150 150 149 147 143 140 137 134 133 130 127 125 123 121 124 131 133 130 122 116 115 108 103 105 109 111 114 125 122 100 90 86
151 203 94 135 209 202 246 254 274 295 295 280 272 285 298 81 110 136 99 73 84 98 357 112 133 109 80 83 106 102 99 107 111 114 119 119 125 135 139 137 133 132 133 139 143 138 136 135 131 130 132 133 135 136 136 137 139 141 144 149 152 154 154 154 154 154 155 152 150 148 146 146 142 139 133 128 126 125 124 125 131 133 131 124 119 115 106 104 114 118 115 116 124 122 103 93 82
184 194 118 222 262 214 256 258 278 291 287 279 279 298 314 38 118 136 106 87 63 104 109 115 124 100 100 130 115 138 130 126 116 118 121 118 125 134 137 135 134 138 141 147 144 141 140 135 131 132 135 136 140 140 139 140 141 144 148 153 156 156 156 157 159 159 159 156 154 155 155 154 150 145 139 135 132 130 129 129 130 132 132 129 126 120 111 110 120 124 119 119 121 117 107 97 87
184 194 112 179 293 283 251 235 256 264 277 286 287 309 5 3 337 98 104 110 75 152 136 131 133 105 156 170 165 178 151 134 123 122 122 120 127 133 140 140 142 146 149 154 154 154 148 138 136 137 140 141 144 143 141 143 145 148 153 159 159 159 160 161 164 165 164 163 163 162 162 158 154 151 146 144 140 136 134 132 131 131 133 132 131 126 122 119 121 126 125 125 122 117 112 100 98
177 127 98 199 257 256 247 237 229 246 268 279 298 335 36 351 338 58 93 120 128 182 108 130 258 135 166 171 144 148 143 134 126 125 122 121 126 131 139 143 147 151 153 157 160 162 155 144 140 141 145 146 146 143 143 147 150 154 159 163 163 165 166 166 168 169 169 169 169 168 166 161 157 155 153 154 151 145 141 138 134 130 132 134 134 131 129 130 129 133 132 136 136 127 123 115 117
134 116 160 236 240 229 232 232 175 222 284 308 324 347 40 339 344 346 11 78 111 76 46 50 355 72 138 131 128 137 139 133 127 126 123 122 126 128 136 142 146 150 156 160 162 162 157 149 146 147 150 150 149 146 148 152 156 161 165 168 169 171 170 170 173 172 173 172 173 174 170 167 163 161 160 159 157 152 146 142 139 132 133 137 137 137 136 142 143 144 145 151 165 177 179 163 157
116 134 179 221 238 229 220 213 175 295 308 309 312 334 23 84 351 321 29 56 87 64 41 53 46 52 83 112 127 136 139 135 132 129 128 129 130 132 138 143 144 151 160 162 163 161 158 155 153 154 155 156 154 152 154 157 163 169 172 174 174 175 173 174 178 179 179 175 175 175 173 171 171 171 166 165 162 157 151 144 142 139 142 147 147 150 152 156 153 154 159 166 179 204 222 197 178
150 158 196 225 226 232 243 243 271 294 289 292 297 331 8 19 348 336 60 74 93 76 50 65 75 73 83 107 124 134 138 139 137 133 135 139 139 140 142 145 149 156 162 162 162 162 161 160 159 160 159 161 161 158 160 162 169 175 177 180 179 179 180 182 183 186 182 177 178 177 177 177 177 179 173 171 168 163 159 154 155 157 159 162 163 166 171 170 166 165 163 165 172 195 207 196 182
193 171 224 245 226 246 264 251 239 251 265 285 300 339 11 322 321 16 129 135 116 122 128 99 102 112 112 116 127 137 141 142 142 138 138 142 144 145 145 147 154 158 161 160 161 163 162 161 161 163 164 168 168 164 165 169 175 180 183 184 184 184 187 190 191 193 188 183 185 186 186 183 182 183 176 175 174 172 170 172 180 182 179 177 178 183 185 184 183 180 168 157 165 198 195 179 170
215 169 212 240 221 248 262 249 245 256 262 271 293 336 356 303 322 39 204 133 10 203 179 150 143 138 130 135 141 144 145 142 145 141 138 141 143 145 144 148 153 157 159 158 158 162 163 161 162 164 168 172 172 170 170 175 182 185 186 188 192 192 192 197 200 203 200 195 195 198 198 191 187 187 187 186 184 181 179 188 201 199 192 190 194 199 198 197 199 192 176 157 151 166 159 154 162
247 225 225 241 228 242 258 250 246 253 268 283 305 324 307 309 334 339 333 282 250 225 171 150 148 145 142 146 145 141 138 138 143 140 136 139 140 139 140 144 149 152 157 158 158 161 163 163 165 167 171 175 177 177 175 181 187 190 191 192 199 199 198 202 205 210 211 206 204 208 208 201 194 194 197 198 201 197 193 205 211 204 199 200 207 210 207 204 207 204 187 171 152 154 162 160 176
234 262 246 249 238 237 254 249 242 231 239 267 274 248 251 25 333 315 12 289 252 149 130 136 141 142 138 137 136 133 132 134 134 134 138 138 138 141 143 146 150 153 158 162 161 161 162 163 167 170 174 178 180 180 181 187 193 196 195 197 204 205 203 205 207 210 211 209 210 214 213 211 208 204 200 198 209 209 205 215 215 208 204 206 210 210 209 206 208 216 204 190 173 177 200 205 219
205 259 258 250 239 236 248 248 249 241 228 245 235 228 228 104 301 327 38 286 106 110 121 127 129 129 126 125 130 131 131 130 123 125 137 138 139 145 148 150 154 156 158 163 164 164 166 170 172 172 177 183 183 184 187 192 198 200 200 203 208 211 210 211 213 211 209 209 211 216 214 215 216 213 209 204 207 207 204 210 212 210 210 212 213 209 210 208 210 227 234 231 220 216 227 242 256
207 239 254 253 242 236 247 246 241 247 244 245 236 255 246 195 192 99 173 160 108 114 118 119 123 121 123 129 132 130 125 122 114 115 127 133 135 141 148 152 155 156 157 164 169 170 174 178 175 172 177 184 184 186 189 195 201 203 204 207 211 217 219 220 220 218 217 213 211 212 210 209 210 212 213 205 197 197 199 204 210 213 216 219 216 214 217 214 214 224 238 251 251 249 248 256 267
221 228 249 251 249 245 251 253 249 264 267 246 248 267 264 225 188 109 171 141 116 118 115 118 124 121 125 131 132 128 127 126 117 116 123 133 136 137 146 153 156 156 159 167 171 173 176 176 170 168 175 182 184 188 191 197 202 204 207 209 213 219 222 224 222 221 221 216 209 208 208 206 203 200 197 193 190 192 197 202 211 221 227 224 217 218 222 221 222 227 235 249 257 258 258 258 262
257 251 258 244 245 247 239 252 271 298 281 241 249 263 266 247 172 102 173 137 123 118 116 122 122 124 131 131 130 129 132 135 129 125 127 136 140 141 148 154 157 160 163 169 173 175 172 165 166 172 177 184 187 190 194 198 202 206 209 211 213 217 221 224 221 217 214 211 208 202 201 204 202 192 185 187 191 195 201 206 215 222 227 226 222 220 220 223 227 230 235 248 253 252 256 260 264
289 278 280 268 275 270 246 260 273 289 279 247 194 279 289 324 161 163 164 147 131 123 122 127 125 132 135 131 132 129 130 135 136 134 136 143 145 144 145 151 158 164 168 170 174 176 171 166 169 176 181 185 189 191 194 198 201 204 208 209 210 213 216 218 219 217 210 206 206 199 196 200 202 199 194 192 194 202 211 215 218 221 227 228 226 223 222 226 228 230 235 246 246 241 250 260 263
293 301 313 296 346 326 280 280 264 243 259 222 109 334 312 275 234 155 152 149 135 127 128 132 132 138 137 136 133 126 127 133 138 136 139 143 144 145 144 154 161 161 166 167 170 173 171 172 176 179 183 186 189 191 193 196 197 199 203 205 208 213 214 214 216 218 215 208 204 200 200 201 204 206 204 198 196 209 221 218 216 214 221 224 222 223 226 229 230 231 236 245 239 229 238 247 254
294 325 1 315 1 319 268 233 261 267 236 152 114 323 278 261 219 147 150 147 137 130 137 140 140 144 143 142 131 127 128 129 136 138 141 142 145 150 149 157 162 159 163 165 170 171 170 179 184 182 183 186 188 191 193 195 197 197 199 202 207 213 213 216 219 213 210 210 205 200 201 203 207 209 207 202 199 205 211 207 207 206 211 218 219 223 229 232 235 240 245 248 224 208 223 240 246
313 334 356 2 356 285 273 210 244 270 233 126 131 237 256 270 153 154 160 150 144 138 143 145 148 151 145 140 131 131 131 129 138 142 146 147 150 156 155 157 159 163 167 164 170 179 181 188 189 185 183 185 187 189 194 196 198 196 194 193 193 195 197 203 205 194 191 195 197 199 201 202 204 206 204 203 202 202 201 201 210 214 215 219 222 227 230 230 235 244 247 240 209 195 211 239 246
355 358 326 342 239 271 300 284 200 226 252 128 150 224 262 272 167 166 166 150 145 140 151 154 152 153 143 140 134 134 133 132 139 145 152 153 156 159 157 155 158 169 170 164 170 191 201 194 188 184 183 187 188 189 192 192 190 190 185 175 169 174 180 181 177 174 172 170 172 182 194 196 198 209 216 212 209 212 215 213 218 227 225 221 222 225 223 222 227 231 225 220 211 206 212 223 228
350 68 273 288 261 290 310 291 216 204 224 152 179 208 273 286 187 171 161 151 147 144 156 154 150 151 142 141 139 141 141 136 140 150 157 158 159 158 153 153 159 170 170 165 173 201 210 196 187 184 183 186 187 185 187 184 178 178 173 161 157 160 161 160 156 152 147 142 139 137 141 157 174 193 212 213 206 212 217 211 215 222 223 221 222 226 224 218 215 205 197 205 215 216 218 222 221
320 7 288 262 244 265 288 291 263 196 189 193 200 206 240 303 158 160 157 155 152 150 154 148 148 147 140 142 145 150 152 151 154 161 163 160 153 148 147 151 160 170 166 164 178 213 212 193 184 181 178 178 180 180 184 180 171 167 166 163 160 153 148 151 147 140 135 127 123 122 122 128 134 138 155 168 163 174 181 186 210 218 219 223 222 221 220 212 200 194 196 206 216 219 222 228 230
264 286 317 293 270 250 248 269 275 169 175 195 186 204 250 290 144 159 169 165 156 152 151 149 152 146 144 149 151 161 158 159 165 163 163 157 148 146 151 156 164 170 165 163 178 210 209 189 181 179 174 173 171 171 172 170 167 165 169 175 174 166 158 157 154 150 144 132 125 125 124 124 123 119 122 125 123 131 128 129 168 193 199 208 207 203 204 200 187 191 205 210 216 220 226 233 239
233 235 172 245 296 274 261 273 269 144 146 178 163 178 257 310 137 157 178 167 148 142 142 146 151 146 150 157 160 164 160 163 166 161 161 158 155 156 158 160 163 166 164 161 171 196 198 181 176 174 170 167 161 158 157 158 160 158 163 170 172 170 167 164 161 156 147 138 133 128 123 121 125 125 119 114 118 125 121 117 124 124 129 152 172 183 192 198 189 187 199 210 218 218 219 226 234
230 281 115 255 314 297 303 321 318 113 110 59 149 132 135 19 172 162 132 108 145 143 144 152 155 153 160 166 166 163 160 160 158 159 160 158 159 158 157 159 159 160 161 159 166 185 185 173 170 167 166 165 162 160 158 158 158 153 151 151 146 146 150 149 146 145 139 133 132 132 128 120 120 121 119 119 128 134 122 115 119 119 119 124 133 144 164 182 182 179 183 195 215 212 206 217 228
349 21 35 359 340 299 298 309 328 36 100 307 297 110 151 248 278 178 146 150 176 162 154 161 163 165 170 165 163 161 155 146 147 156 157 153 154 156 157 162 162 158 157 158 166 178 177 173 174 171 169 170 169 168 165 164 162 158 152 144 138 136 139 139 136 136 134 129 128 128 130 134 130 125 128 129 132 136 121 112 118 117 117 117 111 104 121 151 162 167 177 184 191 192 188 207 220
37 1 17 343 288 301 309 314 340 18 88 266 323 68 251 259 269 166 154 164 190 179 168 167 165 165 172 167 160 159 155 151 157 161 154 151 154 159 161 168 166 158 157 161 168 174 173 176 179 177 176 174 172 169 165 164 163 162 155 146 143 138 135 137 134 132 132 129 126 121 117 132 137 132 136 133 121 124 120 117 120 114 115 112 102 96 96 115 138 157 180 192 186 171 148 145 180
40 354 4 284 256 53 321 314 335 352 16 244 27 23 304 288 332 163 171 177 180 185 184 173 169 171 176 172 163 163 163 160 164 161 154 154 158 165 169 172 166 158 159 165 169 172 175 179 179 176 174 172 170 167 163 163 162 162 157 149 148 141 135 136 134 130 129 124 124 125 122 130 135 128 128 125 113 111 110 114 122 120 116 107 99 97 93 95 105 123 150 171 176 164 144 124 148
300 240 222 248 251 157 243 283 323 343 338 351 76 20 325 351 8 304 255 199 170 176 192 193 187 179 170 165 162 167 166 161 163 162 160 161 165 170 172 170 163 159 163 167 171 174 177 180 178 175 174 173 172 170 168 168 164 160 152 144 142 138 135 137 134 129 127 123 122 123 124 130 131 121 118 120 114 107 102 102 110 122 123 114 106 101 99 98 98 102 110 119 154 166 153 134 142
309 251 224 217 168 172 251 339 9 28 351 316 79 46 298 331 354 287 309 216 183 179 188 197 191 167 161 163 162 167 163 160 163 161 162 165 165 168 170 167 161 162 167 169 172 176 179 182 179 178 179 177 175 175 176 175 168 161 154 148 145 140 137 140 140 137 133 129 126 122 123 128 127 119 114 114 114 109 103 99 99 109 118 118 112 102 97 95 96 102 102 106 130 150 152 140 140
304 247 205 187 149 118 80 50 45 75 273 289 71 111 257 322 327 280 282 168 190 210 217 206 184 168 174 171 163 163 161 157 155 153 157 161 162 165 169 167 164 167 169 170 173 178 181 183 182 182 183 183 182 181 183 179 169 164 162 159 156 151 147 144 145 144 140 135 133 129 125 126 127 126 120 113 115 112 106 102 98 103 113 116 115 107 97 92 94 99 101 108 114 108 112 124 124
235 245 186 184 138 109 115 92 78 211 231 321 11 102 171 303 283 265 271 145 195 220 219 210 198 182 174 174 172 169 166 157 148 150 154 161 166 169 170 168 167 169 170 171 175 178 181 181 182 185 186 187 185 182 183 180 173 169 167 164 160 157 151 147 146 147 146 146 144 141 134 124 119 124 124 116 115 114 108 102 95 97 111 118 118 114 109 107 105 100 100 108 112 103 95 99 101
245 242 199 218 212 146 131 101 102 309 47 339 322 45 127 276 280 291 6 33 251 241 215 185 186 190 179 179 175 164 160 151 147 154 161 168 172 170 168 167 168 170 172 174 176 178 180 179 181 186 187 180 174 174 177 177 175 171 168 164 160 158 154 150 150 149 151 153 146 143 138 124 116 119 122 116 112 113 110 103 93 89 97 102 103 107 112 115 114 109 107 110 114 107 96 91 87
250 233 174 16 47 91 87 94 108 41 59 263 280 336 124 267 291 314 4 359 295 284 273 179 175 182 174 166 153 140 145 151 156 163 164 167 170 168 166 167 169 170 173 176 177 178 180 180 181 187 186 176 168 169 173 172 171 171 169 166 160 159 158 154 154 154 154 152 146 144 142 132 127 126 126 121 118 117 113 106 97 89 89 91 92 96 105 111 115 118 116 117 119 114 107 102 93
203 65 49 26 19 13 34 74 82 53 23 253 260 287 111 285 295 281 287 302 246 203 314 154 152 151 144 138 131 137 151 162 161 153 140 147 160 165 165 167 169 168 170 174 177 178 180 181 182 184 184 178 173 172 173 172 172 173 172 167 163 163 162 158 156 157 158 157 153 151 151 145 136 133 134 134 129 125 121 115 103 94 89 86 85 89 96 100 105 115 121 122 122 122 121 117 106
100 72 59 43 351 5 16 1 36 76 261 257 263 35 94 115 275 271 291 305 288 162 121 108 123 123 118 120 120 134 148 148 138 127 124 135 148 161 165 166 167 166 168 171 173 177 178 179 180 181 182 183 182 179 178 177 176 176 173 170 168 167 165 162 158 159 162 163 160 158 157 154 149 145 144 144 143 139 133 125 114 105 98 91 87 87 90 92 95 106 119 124 120 118 121 120 112
83 95 71 75 353 9 16 325 1 191 250 255 277 12 78 220 245 267 312 328 312 250 130 121 122 115 107 114 118 121 124 121 121 127 138 145 149 163 168 168 171 172 171 167 162 163 168 174 178 178 181 186 189 186 182 179 177 175 173 173 173 171 170 168 163 162 166 168 167 165 163 162 163 160 154 151 152 151 147 141 132 123 117 109 100 93 92 93 95 100 108 119 123 119 116 113 109
123 151 117 112 112 63 303 278 306 261 262 269 290 326 289 290 265 272 321 358 336 308 115 116 116 117 118 116 112 108 108 114 120 120 124 135 152 171 176 176 179 179 175 166 151 145 154 169 180 182 183 188 191 188 183 178 175 176 178 179 178 176 175 173 168 167 169 172 173 172 172 171 169 166 161 157 154 150 150 151 148 142 139 134 121 112 103 94 90 95 99 106 116 123 122 111 103
204 169 132 138 152 143 201 222 189 238 265 287 311 358 159 218 252 283 357 41 30 355 45 89 93 100 108 104 98 97 99 104 109 105 102 109 135 167 184 191 191 183 174 163 149 147 150 156 172 184 184 186 190 188 182 175 172 178 185 185 183 181 181 177 173 172 173 176 177 176 178 178 174 168 162 158 155 152 150 151 155 155 155 153 143 136 126 99 81 92 101 99 97 109 128 123 108
278 125 90 135 188 152 158 187 173 176 185 306 297 230 203 195 238 334 44 71 59 20 22 61 77 78 81 88 88 89 88 85 89 91 89 80 81 104 160 196 198 184 165 155 150 154 156 153 163 177 180 180 189 195 187 175 172 181 188 188 188 185 183 180 176 176 178 181 181 181 182 181 177 171 164 161 159 158 157 154 154 155 158 160 156 152 149 129 83 91 113 112 101 99 118 130 123
279 32 76 239 183 130 119 225 195 109 102 280 251 213 293 332 18 356 41 87 100 96 80 76 81 72 69 76 81 83 80 73 73 77 81 75 65 64 77 147 181 164 145 143 150 160 164 166 171 175 177 181 188 200 196 178 172 183 192 192 192 188 184 182 180 180 183 186 187 188 187 184 179 176 172 168 166 166 166 164 160 156 157 162 162 159 158 157 122 97 119 123 114 104 107 128 136
113 191 218 222 63 90 106 130 353 51 119 270 276 184 271 33 182 334 31 83 99 100 122 118 105 91 81 76 78 81 78 75 77 78 78 76 71 67 67 83 125 142 138 142 153 164 167 172 180 179 179 186 189 194 196 183 178 187 197 196 194 192 187 183 181 182 186 192 195 196 195 192 186 182 180 176 174 175 174 172 171 165 161 166 171 170 171 184 203 170 144 143 133 119 103 125 140
117 186 182 97 75 357 41 114 151 93 189 275 311 257 181 153 214 307 10 109 110 78 75 108 115 120 120 114 102 92 83 78 83 86 84 79 77 75 74 78 95 121 136 144 154 165 169 175 188 187 184 188 187 181 179 176 176 185 198 199 196 192 188 185 184 188 192 197 201 203 203 201 195 190 187 185 183 182 180 180 179 177 172 173 179 184 184 191 208 206 189 194 186 174 203 179 148
9 7 27 65 134 161 138 141 156 147 171 244 311 352 299 221 217 240 317 147 125 115 106 103 116 125 127 126 118 108 105 106 107 100 98 93 84 83 81 81 87 103 124 143 157 170 176 185 199 198 189 185 181 174 169 159 155 165 191 197 195 193 189 188 190 194 198 201 205 208 207 205 202 199 195 192 191 189 188 188 186 187 187 186 190 193 193 195 204 213 208 210 215 209 222 224 193
350 348 341 42 96 119 109 73 85 121 134 167 145 4 278 254 223 183 166 118 113 134 128 120 124 114 108 110 107 107 111 107 103 96 94 93 86 85 87 88 92 102 116 133 149 166 177 190 201 194 181 177 177 175 170 162 164 179 197 191 188 188 188 192 199 201 203 205 206 208 209 207 205 204 201 197 197 196 196 196 196 199 201 202 202 200 202 204 205 212 214 216 222 220 223 226 218
210 251 259 151 137 121 107 4 315 87 129 156 146 163 266 259 259 218 189 141 127 145 130 119 128 127 119 117 114 112 100 84 84 85 85 89 85 85 89 92 96 103 114 127 138 154 171 186 198 191 169 165 172 172 166 162 171 186 199 189 184 185 187 195 204 205 206 206 206 208 209 208 208 211 210 205 203 201 201 203 206 209 209 210 212 211 212 215 214 215 217 217 220 222 225 224 219